This is the latest recevied weather packets stored in our database for station/object KL1SF-7. If no packets are shown the sender has not sent any weather packets the latest 10 day(s).
| Time | Temp. | Humidity | Pressure | Rain* | Wind** | Luminosity | Snow |
|---|---|---|---|---|---|---|---|
| 1777954421 | 8.33° C | 30% | 1013.3 hPa | 0 mm | - | - | - |
| 1777953813 | 8.89° C | 30% | 1013.3 hPa | 0 mm | - | - | - |
| 1777953215 | 8.89° C | 28% | 1013.2 hPa | 0 mm | - | - | - |
| 1777952608 | 8.89° C | 27% | 1013.2 hPa | 0 mm | - | - | - |
| 1777952020 | 9.44° C | 28% | 1013.2 hPa | 0 mm | - | - | - |
| 1777951401 | 9.44° C | 27% | 1012.9 hPa | 0 mm | - | - | - |
| 1777950815 | 9.44° C | 27% | 1012.9 hPa | 0 mm | - | - | - |
| 1777950227 | 10° C | 26% | 1012.7 hPa | 0 mm | - | - | - |
| 1777949607 | 10° C | 25% | 1012.4 hPa | 0 mm | - | - | - |
| 1777949017 | 10° C | 26% | 1012.4 hPa | 0 mm | - | - | - |
| 1777948430 | 10.56° C | 27% | 1012.2 hPa | 0 mm | - | - | - |
| 1777947811 | 10.56° C | 27% | 1012.5 hPa | 0 mm | - | - | - |
| 1777947204 | 11.11° C | 28% | 1012.5 hPa | 0 mm | - | - | - |
| 1777946618 | 11.11° C | 27% | 1012.6 hPa | 0 mm | - | - | - |
| 1777946002 | 11.11° C | 27% | 1012.7 hPa | 0 mm | - | - | - |
| 1777945411 | 11.67° C | 28% | 1012.7 hPa | 0 mm | - | - | - |
| 1777944827 | 11.67° C | 28% | 1012.6 hPa | 0 mm | - | - | - |
| 1777944208 | 11.67° C | 28% | 1012.2 hPa | 0 mm | - | - | - |
| 1777943601 | 12.22° C | 28% | 1012.2 hPa | 0 mm | - | - | - |
| 1777943014 | 12.22° C | 27% | 1012.4 hPa | 0 mm | - | - | - |
| 1777942416 | 12.78° C | 26% | 1012.5 hPa | 0 mm | - | - | - |
| 1777941806 | 12.78° C | 28% | 1012.5 hPa | 0 mm | - | - | - |
| 1777941218 | 13.33° C | 27% | 1012.4 hPa | 0 mm | - | - | - |
| 1777940599 | 13.33° C | 26% | 1012.5 hPa | 0 mm | - | - | - |
| 1777940012 | 13.33° C | 23% | 1012.5 hPa | 0 mm | - | - | - |
* Rain since midnight (hover to see other rain measurements)
** Current wind speed in m/s (hover to see current wind gust speed)